Weather History for State College, PA

Change the Weather History Date:

Thursday, December 19, 2013

  Actual Average Record
Temperature  
Mean Temperature 34 °F -  
Max Temperature 48 °F 34 °F 55 °F (1929)
Min Temperature 20 °F 20 °F -2 °F (1926)
Degree Days  
Heating Degree Days 31    
Moisture  
Dew Point 23 °F    
Average Humidity 69    
Maximum Humidity 86    
Minimum Humidity 46    
Precipitation  
Precipitation 0.00 in - - ()
Sea Level Pressure  
Sea Level Pressure 30.04 in    
Wind  
Wind Speed 4 mph (WSW)    
Max Wind Speed 17 mph    
Max Gust Speed 26 mph    
Visibility 10 miles    
Events      
Averages and records for this station are not official NWS values.
T = Trace of Precipitation, MM = Missing Value Source: NWS Daily Summary

Daily Weather History Graph

Daily Weather History Graph

Search for Another Location

Airport:

Trip Planner

Search our weather history database for the weather conditions in past years. The results will help you decide how hot, cold, wet, or windy it might be!

Date:

Astronomy

Dec. 19, 2013 Rise Set
Actual Time 7:31 AM EST 4:45 PM EST
Civil Twilight 7:00 AM EST 5:16 PM EST
Nautical Twilight 6:25 AM EST 5:51 PM EST
Astronomical Twilight 5:52 AM EST 6:24 PM EST
Moon 7:10 PM EST (12/19) 8:48 AM EST (12/19)
Length of Visible Light 10h 16m
Length of Day
9h 14m
Waning Gibbous, 95% of the Moon is Illuminated
Dec 19
Waning Gibbous
Dec 25
Last Quarter
Jan 1
New
Jan 7
First Quarter
Jan 15
Full

Hourly Weather History & Observations

Time (EST) Temp. Windchill Dew Point Humidity Pressure Visibility Wind Dir Wind Speed Gust Speed Precip Events Conditions
12:15 AM 23.7 °F 16.6 °F 17.6 °F 77% 30.08 in 10.0 mi WSW 5.8 mph - N/A   Clear
12:35 AM 23.5 °F 16.4 °F 18.0 °F 79% 30.08 in 10.0 mi WSW 5.8 mph - N/A   Clear
12:55 AM 22.8 °F 16.7 °F 17.8 °F 81% 30.07 in 10.0 mi SW 4.6 mph - N/A   Clear
1:15 AM 24.3 °F 17.3 °F 18.3 °F 78% 30.07 in 10.0 mi WSW 5.8 mph - N/A   Clear
1:35 AM 22.1 °F - 16.7 °F 80% 30.06 in 10.0 mi Calm Calm - N/A   Clear
1:55 AM 22.3 °F 17.6 °F 17.2 °F 81% 30.06 in 10.0 mi SSW 3.5 mph - N/A   Clear
2:15 AM 22.3 °F 17.6 °F 16.9 °F 80% 30.07 in 10.0 mi SW 3.5 mph - N/A   Clear
2:35 AM 20.7 °F - 16.5 °F 84% 30.07 in 10.0 mi Calm Calm - N/A   Clear
2:55 AM 21.6 °F - 18.0 °F 86% 30.06 in 10.0 mi Calm Calm - N/A   Clear
3:15 AM 24.1 °F - 18.3 °F 79% 30.06 in 10.0 mi Calm Calm - N/A   Clear
3:35 AM 22.3 °F - 17.4 °F 82% 30.05 in 10.0 mi Calm Calm - N/A   Clear
3:55 AM 23.7 °F - 17.1 °F 76% 30.04 in 10.0 mi Calm Calm - N/A   Clear
4:15 AM 23.9 °F - 17.6 °F 77% 30.03 in 10.0 mi Calm Calm - N/A   Clear
4:35 AM 23.5 °F 19.1 °F 16.9 °F 76% 30.03 in 10.0 mi West 3.5 mph - N/A   Clear
4:55 AM 22.8 °F 15.5 °F 16.2 °F 76% 30.03 in 10.0 mi West 5.8 mph - N/A   Clear
5:15 AM 25.0 °F 17.1 °F 16.7 °F 71% 30.03 in 10.0 mi West 6.9 mph - N/A   Clear
5:35 AM 25.3 °F 17.6 °F 16.7 °F 70% 30.03 in 10.0 mi WSW 6.9 mph - N/A   Clear
5:53 AM 24.8 °F 17.9 °F 15.8 °F 69% 30.03 in 10.0 mi WSW 5.8 mph - N/A   Clear
6:53 AM 26.6 °F 22.6 °F 15.8 °F 64% 30.02 in 10.0 mi WSW 3.5 mph - N/A   Clear
7:53 AM 23.0 °F - 15.8 °F 74% 30.03 in 10.0 mi Calm Calm - N/A   Clear
8:53 AM 26.6 °F - 15.8 °F 64% 30.03 in 10.0 mi Calm Calm - N/A   Clear
9:53 AM 32.0 °F - 17.6 °F 55% 30.03 in 10.0 mi Calm Calm - N/A   Clear
10:53 AM 39.2 °F - 23.0 °F 52% 30.03 in 10.0 mi Calm Calm - N/A   Clear
11:53 AM 46.4 °F 40.1 °F 28.4 °F 50% 30.00 in 10.0 mi West 15.0 mph 26.5 mph N/A   Clear
12:53 PM 46.4 °F 40.4 °F 28.4 °F 50% 29.99 in 10.0 mi West 13.8 mph - N/A   Clear
1:53 PM 48.2 °F - 28.4 °F 46% 29.99 in 10.0 mi WSW 10.4 mph - N/A   Clear
2:53 PM 48.2 °F - 30.2 °F 50% 29.99 in 10.0 mi WSW 17.3 mph - N/A   Clear
3:53 PM 46.4 °F 41.5 °F 30.2 °F 53% 30.01 in 10.0 mi WSW 10.4 mph - N/A   Clear
4:53 PM 44.6 °F 38.8 °F 30.2 °F 57% 30.03 in 10.0 mi WSW 11.5 mph - N/A   Mostly Cloudy
5:53 PM 44.6 °F 41.4 °F 30.2 °F 57% 30.05 in 10.0 mi WSW 5.8 mph - N/A   Mostly Cloudy
6:53 PM 42.8 °F 39.3 °F 30.2 °F 61% 30.07 in 10.0 mi WSW 5.8 mph - N/A   Clear
7:37 PM 42.8 °F 39.3 °F 30.2 °F 61% 30.07 in 10.0 mi WSW 5.8 mph - N/A   Clear
7:53 PM 44.6 °F 41.4 °F 30.2 °F 57% 30.06 in 10.0 mi WSW 5.8 mph - N/A   Clear
8:53 PM 42.8 °F 39.3 °F 30.2 °F 61% 30.05 in 10.0 mi WSW 5.8 mph - N/A   Mostly Cloudy
9:55 PM 39.6 °F - 31.3 °F 72% 30.05 in 10.0 mi Calm Calm - N/A   Clear
10:15 PM 40.8 °F 37.8 °F 31.3 °F 69% 30.05 in 10.0 mi WNW 4.6 mph - N/A   Clear
10:35 PM 38.5 °F 36.1 °F 30.4 °F 73% 30.05 in 10.0 mi WSW 3.5 mph - N/A   Clear
10:55 PM 38.7 °F - 30.4 °F 72% 30.05 in 10.0 mi Calm Calm - N/A   Scattered Clouds
11:15 PM 39.4 °F - 31.3 °F 73% 30.05 in 10.0 mi Calm Calm - N/A   Clear
11:35 PM 39.9 °F - 31.1 °F 71% 30.04 in 10.0 mi Calm Calm - N/A   Clear
11:55 PM 38.5 °F - 31.1 °F 75% 30.05 in 10.0 mi Calm Calm - N/A   Clear